Time,TemperatureF,DewpointF,PressureIn,WindDirection,WindDirectionDegrees,WindSpeedMPH,WindSpeedGustMPH,Humidity,HourlyPrecipIn,Conditions,Clouds,dailyrainin,SolarRadiationWatts/m^2,SoftwareType,DateUTC
2013-05-27 00:03:00,47.0,28.0,-100.00,ENE,58,5.0,8.0,47,0.00,,,0.00,0.000000,,2013-05-27 04:03:00,
2013-05-27 00:12:00,47.0,28.0,-100.00,ENE,58,5.0,8.0,47,0.00,,,0.00,0.000000,,2013-05-27 04:12:00,
2013-05-27 00:33:00,47.0,28.0,-100.00,NE,52,4.0,9.0,48,0.00,,,0.00,0.000000,,2013-05-27 04:33:00,
2013-05-27 00:43:00,47.0,28.0,-100.00,NE,52,4.0,9.0,48,0.00,,,0.00,0.000000,,2013-05-27 04:43:00,
2013-05-27 00:53:00,47.0,28.0,-100.00,NE,52,4.0,9.0,48,0.00,,,0.00,0.000000,,2013-05-27 04:53:00,
2013-05-27 01:02:00,47.0,28.0,-100.00,NE,52,4.0,9.0,48,0.00,,,0.00,0.000000,,2013-05-27 05:02:00,
2013-05-27 01:12:00,47.0,28.0,-100.00,NE,52,4.0,9.0,48,0.00,,,0.00,0.000000,,2013-05-27 05:12:00,
2013-05-27 01:32:00,44.0,28.0,-100.00,North,9,3.0,5.0,52,0.00,,,0.00,0.000000,,2013-05-27 05:32:00,
2013-05-27 01:42:00,44.0,28.0,-100.00,North,9,3.0,5.0,52,0.00,,,0.00,0.000000,,2013-05-27 05:42:00,
2013-05-27 01:52:00,44.0,28.0,-100.00,North,9,3.0,5.0,52,0.00,,,0.00,0.000000,,2013-05-27 05:52:00,
2013-05-27 02:02:00,44.0,28.0,-100.00,North,9,3.0,5.0,52,0.00,,,0.00,0.000000,,2013-05-27 06:02:00,
2013-05-27 02:11:00,44.0,28.0,-100.00,North,9,3.0,5.0,52,0.00,,,0.00,0.000000,,2013-05-27 06:11:00,
2013-05-27 02:32:00,44.0,28.0,-100.00,NNE,12,3.0,7.0,52,0.00,,,0.00,0.000000,,2013-05-27 06:32:00,
2013-05-27 02:42:00,44.0,28.0,-100.00,NNE,12,3.0,7.0,52,0.00,,,0.00,0.000000,,2013-05-27 06:42:00,
2013-05-27 02:52:00,44.0,28.0,-100.00,NNE,12,3.0,7.0,52,0.00,,,0.00,0.000000,,2013-05-27 06:52:00,
2013-05-27 03:02:00,44.0,28.0,-100.00,NNE,12,3.0,7.0,52,0.00,,,0.00,0.000000,,2013-05-27 07:02:00,
2013-05-27 03:11:00,44.0,28.0,-100.00,NNE,12,3.0,7.0,52,0.00,,,0.00,0.000000,,2013-05-27 07:11:00,
2013-05-27 03:32:00,44.0,29.0,-100.00,NE,40,4.0,7.0,56,0.00,,,0.00,0.000000,,2013-05-27 07:32:00,
2013-05-27 03:42:00,44.0,29.0,-100.00,NE,40,4.0,7.0,56,0.00,,,0.00,0.000000,,2013-05-27 07:42:00,
2013-05-27 03:53:00,44.0,29.0,-100.00,NE,40,4.0,7.0,56,0.00,,,0.00,0.000000,,2013-05-27 07:53:00,
2013-05-27 04:02:00,44.0,29.0,-100.00,NE,40,4.0,7.0,56,0.00,,,0.00,0.000000,,2013-05-27 08:02:00,
2013-05-27 04:11:00,44.0,29.0,-100.00,NE,40,4.0,7.0,56,0.00,,,0.00,0.000000,,2013-05-27 08:11:00,
2013-05-27 04:33:00,42.0,28.0,-100.00,North,357,4.0,7.0,58,0.00,,,0.00,0.000000,,2013-05-27 08:33:00,
2013-05-27 04:42:00,42.0,28.0,-100.00,North,357,4.0,7.0,58,0.00,,,0.00,0.000000,,2013-05-27 08:42:00,
2013-05-27 04:52:00,42.0,28.0,-100.00,North,357,4.0,7.0,58,0.00,,,0.00,0.000000,,2013-05-27 08:52:00,
2013-05-27 05:02:00,42.0,28.0,-100.00,North,357,4.0,7.0,58,0.00,,,0.00,0.000000,,2013-05-27 09:02:00,
2013-05-27 05:11:00,42.0,28.0,-100.00,North,357,4.0,7.0,58,0.00,,,0.00,0.000000,,2013-05-27 09:11:00,
2013-05-27 05:33:00,43.0,30.0,-100.00,NE,43,4.0,8.0,59,0.00,,,0.00,0.000000,,2013-05-27 09:33:00,
2013-05-27 05:42:00,43.0,30.0,-100.00,NE,43,4.0,8.0,59,0.00,,,0.00,0.000000,,2013-05-27 09:42:00,
2013-05-27 05:53:00,43.0,30.0,-100.00,NE,43,4.0,8.0,59,0.00,,,0.00,0.000000,,2013-05-27 09:53:00,
2013-05-27 06:03:00,43.0,30.0,-100.00,NE,43,4.0,8.0,59,0.00,,,0.00,0.000000,,2013-05-27 10:03:00,
2013-05-27 06:12:00,43.0,30.0,-100.00,NE,43,4.0,8.0,59,0.00,,,0.00,0.000000,,2013-05-27 10:12:00,
2013-05-27 06:32:00,42.0,30.0,-100.00,NNE,19,3.0,7.0,61,0.00,,,0.00,9.000000,,2013-05-27 10:32:00,
2013-05-27 06:42:00,42.0,30.0,-100.00,NNE,19,3.0,7.0,61,0.00,,,0.00,9.000000,,2013-05-27 10:42:00,
2013-05-27 06:53:00,42.0,30.0,-100.00,NNE,19,3.0,7.0,61,0.00,,,0.00,9.000000,,2013-05-27 10:53:00,
2013-05-27 07:02:00,42.0,30.0,-100.00,NNE,19,3.0,7.0,61,0.00,,,0.00,9.000000,,2013-05-27 11:02:00,
2013-05-27 07:11:00,42.0,30.0,-100.00,NNE,19,3.0,7.0,61,0.00,,,0.00,9.000000,,2013-05-27 11:11:00,
2013-05-27 07:32:00,49.0,33.0,-100.00,NE,44,4.0,6.0,54,0.00,,,0.00,142.000000,,2013-05-27 11:32:00,
2013-05-27 07:42:00,49.0,33.0,-100.00,NE,44,4.0,6.0,54,0.00,,,0.00,142.000000,,2013-05-27 11:42:00,
2013-05-27 07:52:00,49.0,33.0,-100.00,NE,44,4.0,6.0,54,0.00,,,0.00,142.000000,,2013-05-27 11:52:00,
2013-05-27 08:02:00,49.0,33.0,-100.00,NE,44,4.0,6.0,54,0.00,,,0.00,142.000000,,2013-05-27 12:02:00,
2013-05-27 08:11:00,49.0,33.0,-100.00,NE,44,4.0,6.0,54,0.00,,,0.00,142.000000,,2013-05-27 12:11:00,
2013-05-27 08:32:00,53.0,35.0,-100.00,NE,55,4.0,6.0,50,0.00,,,0.00,322.000000,,2013-05-27 12:32:00,
2013-05-27 08:42:00,53.0,35.0,-100.00,NE,55,4.0,6.0,50,0.00,,,0.00,322.000000,,2013-05-27 12:42:00,
2013-05-27 08:52:00,53.0,35.0,-100.00,NE,55,4.0,6.0,50,0.00,,,0.00,322.000000,,2013-05-27 12:52:00,
2013-05-27 09:02:00,53.0,35.0,-100.00,NE,55,4.0,6.0,50,0.00,,,0.00,322.000000,,2013-05-27 13:02:00,
2013-05-27 09:11:00,53.0,35.0,-100.00,NE,55,4.0,6.0,50,0.00,,,0.00,322.000000,,2013-05-27 13:11:00,
2013-05-27 09:42:00,56.0,35.0,-100.00,NE,51,5.0,8.0,45,0.00,,,0.00,490.000000,,2013-05-27 13:42:00,
2013-05-27 09:53:00,56.0,35.0,-100.00,NE,51,5.0,8.0,45,0.00,,,0.00,490.000000,,2013-05-27 13:53:00,
2013-05-27 10:02:00,56.0,35.0,-100.00,NE,51,5.0,8.0,45,0.00,,,0.00,490.000000,,2013-05-27 14:02:00,
2013-05-27 10:11:00,56.0,35.0,-100.00,NE,51,5.0,8.0,45,0.00,,,0.00,490.000000,,2013-05-27 14:11:00,
2013-05-27 10:42:00,58.0,34.0,-100.00,ENE,57,5.0,8.0,40,0.00,,,0.00,597.000000,,2013-05-27 14:42:00,
2013-05-27 10:52:00,58.0,34.0,-100.00,ENE,57,5.0,8.0,40,0.00,,,0.00,597.000000,,2013-05-27 14:52:00,
2013-05-27 11:02:00,58.0,34.0,-100.00,ENE,57,5.0,8.0,40,0.00,,,0.00,597.000000,,2013-05-27 15:02:00,
2013-05-27 11:11:00,58.0,34.0,-100.00,ENE,57,5.0,8.0,40,0.00,,,0.00,597.000000,,2013-05-27 15:11:00,
2013-05-27 11:33:00,62.0,32.0,-100.00,NNE,30,4.0,10.0,32,0.00,,,0.00,747.000000,,2013-05-27 15:33:00,
2013-05-27 11:43:00,62.0,32.0,-100.00,NNE,30,4.0,10.0,32,0.00,,,0.00,747.000000,,2013-05-27 15:43:00,
2013-05-27 11:53:00,62.0,32.0,-100.00,NNE,30,4.0,10.0,32,0.00,,,0.00,747.000000,,2013-05-27 15:53:00,
2013-05-27 12:03:00,62.0,32.0,-100.00,NNE,30,4.0,10.0,32,0.00,,,0.00,747.000000,,2013-05-27 16:03:00,
2013-05-27 12:12:00,62.0,32.0,-100.00,NNE,30,4.0,10.0,32,0.00,,,0.00,747.000000,,2013-05-27 16:12:00,
2013-05-27 12:33:00,64.0,26.0,-100.00,NE,44,5.0,9.0,24,0.00,,,0.00,773.000000,,2013-05-27 16:33:00,
2013-05-27 12:42:00,64.0,26.0,-100.00,NE,44,5.0,9.0,24,0.00,,,0.00,773.000000,,2013-05-27 16:42:00,
2013-05-27 12:53:00,64.0,26.0,-100.00,NE,44,5.0,9.0,24,0.00,,,0.00,773.000000,,2013-05-27 16:53:00,
2013-05-27 13:02:00,64.0,26.0,-100.00,NE,44,5.0,9.0,24,0.00,,,0.00,773.000000,,2013-05-27 17:02:00,
2013-05-27 13:12:00,64.0,26.0,-100.00,NE,44,5.0,9.0,24,0.00,,,0.00,773.000000,,2013-05-27 17:12:00,
2013-05-27 13:32:00,66.0,27.0,-100.00,NNW,347,4.0,9.0,23,0.00,,,0.00,723.000000,,2013-05-27 17:32:00,
2013-05-27 13:43:00,66.0,27.0,-100.00,NNW,347,4.0,9.0,23,0.00,,,0.00,723.000000,,2013-05-27 17:43:00,
2013-05-27 13:52:00,66.0,27.0,-100.00,NNW,347,4.0,9.0,23,0.00,,,0.00,723.000000,,2013-05-27 17:52:00,
2013-05-27 14:02:00,66.0,27.0,-100.00,NNW,347,4.0,9.0,23,0.00,,,0.00,723.000000,,2013-05-27 18:02:00,
2013-05-27 14:11:00,66.0,27.0,-100.00,NNW,347,4.0,9.0,23,0.00,,,0.00,723.000000,,2013-05-27 18:11:00,
2013-05-27 14:32:00,69.0,26.0,-100.00,NE,38,5.0,12.0,20,0.00,,,0.00,813.000000,,2013-05-27 18:32:00,
2013-05-27 14:42:00,69.0,26.0,-100.00,NE,38,5.0,12.0,20,0.00,,,0.00,813.000000,,2013-05-27 18:42:00,
2013-05-27 14:52:00,69.0,26.0,-100.00,NE,38,5.0,12.0,20,0.00,,,0.00,813.000000,,2013-05-27 18:52:00,
2013-05-27 15:01:00,69.0,26.0,-100.00,NE,38,5.0,12.0,20,0.00,,,0.00,813.000000,,2013-05-27 19:01:00,
2013-05-27 15:11:00,69.0,26.0,-100.00,NE,38,5.0,12.0,20,0.00,,,0.00,813.000000,,2013-05-27 19:11:00,
2013-05-27 15:32:00,69.0,29.0,-100.00,NNE,21,4.0,10.0,22,0.00,,,0.00,728.000000,,2013-05-27 19:32:00,
2013-05-27 15:42:00,69.0,29.0,-100.00,NNE,21,4.0,10.0,22,0.00,,,0.00,728.000000,,2013-05-27 19:42:00,
2013-05-27 15:52:00,69.0,29.0,-100.00,NNE,21,4.0,10.0,22,0.00,,,0.00,728.000000,,2013-05-27 19:52:00,
2013-05-27 16:02:00,69.0,29.0,-100.00,NNE,21,4.0,10.0,22,0.00,,,0.00,728.000000,,2013-05-27 20:02:00,
2013-05-27 16:11:00,69.0,29.0,-100.00,NNE,21,4.0,10.0,22,0.00,,,0.00,728.000000,,2013-05-27 20:11:00,
2013-05-27 16:32:00,71.0,30.0,-100.00,NNE,26,5.0,9.0,22,0.00,,,0.00,695.000000,,2013-05-27 20:32:00,
2013-05-27 16:42:00,71.0,30.0,-100.00,NNE,26,5.0,9.0,22,0.00,,,0.00,695.000000,,2013-05-27 20:42:00,
2013-05-27 16:53:00,71.0,30.0,-100.00,NNE,26,5.0,9.0,22,0.00,,,0.00,695.000000,,2013-05-27 20:53:00,
2013-05-27 17:01:00,71.0,30.0,-100.00,NNE,26,5.0,9.0,22,0.00,,,0.00,695.000000,,2013-05-27 21:01:00,
2013-05-27 17:12:00,71.0,30.0,-100.00,NNE,26,5.0,9.0,22,0.00,,,0.00,695.000000,,2013-05-27 21:12:00,
2013-05-27 17:33:00,70.0,32.0,-100.00,NNW,335,5.0,14.0,24,0.00,,,0.00,534.000000,,2013-05-27 21:33:00,
2013-05-27 17:43:00,70.0,32.0,-100.00,NNW,335,5.0,14.0,24,0.00,,,0.00,534.000000,,2013-05-27 21:43:00,
2013-05-27 17:53:00,70.0,32.0,-100.00,NNW,335,5.0,14.0,24,0.00,,,0.00,534.000000,,2013-05-27 21:53:00,
2013-05-27 18:03:00,70.0,32.0,-100.00,NNW,335,5.0,14.0,24,0.00,,,0.00,534.000000,,2013-05-27 22:03:00,
2013-05-27 18:13:00,70.0,32.0,-100.00,NNW,335,5.0,14.0,24,0.00,,,0.00,534.000000,,2013-05-27 22:13:00,
2013-05-27 18:33:00,67.0,29.0,-100.00,North,358,4.0,10.0,24,0.00,,,0.00,322.000000,,2013-05-27 22:33:00,
2013-05-27 18:42:00,67.0,29.0,-100.00,North,358,4.0,10.0,24,0.00,,,0.00,322.000000,,2013-05-27 22:42:00,
2013-05-27 18:53:00,67.0,29.0,-100.00,North,358,4.0,10.0,24,0.00,,,0.00,322.000000,,2013-05-27 22:53:00,
2013-05-27 19:02:00,67.0,29.0,-100.00,North,358,4.0,10.0,24,0.00,,,0.00,322.000000,,2013-05-27 23:02:00,
2013-05-27 19:12:00,67.0,29.0,-100.00,North,358,4.0,10.0,24,0.00,,,0.00,322.000000,,2013-05-27 23:12:00,
2013-05-27 19:42:00,61.0,36.0,-100.00,WNW,283,7.0,12.0,39,0.00,,,0.00,112.000000,,2013-05-27 23:42:00,
2013-05-27 19:52:00,61.0,36.0,-100.00,WNW,283,7.0,12.0,39,0.00,,,0.00,112.000000,,2013-05-27 23:52:00,
2013-05-27 20:01:00,61.0,36.0,-100.00,WNW,283,7.0,12.0,39,0.00,,,0.00,112.000000,,2013-05-28 00:01:00,
2013-05-27 20:11:00,61.0,36.0,-100.00,WNW,283,7.0,12.0,39,0.00,,,0.00,112.000000,,2013-05-28 00:11:00,
2013-05-27 21:32:00,56.0,34.0,-100.00,NW,324,5.0,9.0,44,-99.99,,,0.00,2.000000,,2013-05-28 01:32:00,
2013-05-27 21:42:00,56.0,34.0,-100.00,NW,324,5.0,9.0,44,-99.99,,,0.00,2.000000,,2013-05-28 01:42:00,
2013-05-27 21:52:00,56.0,34.0,-100.00,NW,324,5.0,9.0,44,-99.99,,,0.00,2.000000,,2013-05-28 01:52:00,
2013-05-27 22:02:00,56.0,34.0,-100.00,NW,324,5.0,9.0,44,-99.99,,,0.00,2.000000,,2013-05-28 02:02:00,
2013-05-27 22:11:00,56.0,34.0,-100.00,NW,324,5.0,9.0,44,-99.99,,,0.00,2.000000,,2013-05-28 02:11:00,
2013-05-27 22:32:00,55.0,31.0,-100.00,NNW,329,5.0,10.0,40,0.00,,,0.00,0.000000,,2013-05-28 02:32:00,
2013-05-27 22:42:00,55.0,31.0,-100.00,NNW,329,5.0,10.0,40,0.00,,,0.00,0.000000,,2013-05-28 02:42:00,
2013-05-27 22:52:00,55.0,31.0,-100.00,NNW,329,5.0,10.0,40,0.00,,,0.00,0.000000,,2013-05-28 02:52:00,
2013-05-27 23:01:00,55.0,31.0,-100.00,NNW,329,5.0,10.0,40,0.00,,,0.00,0.000000,,2013-05-28 03:01:00,
2013-05-27 23:11:00,55.0,31.0,-100.00,NNW,329,5.0,10.0,40,0.00,,,0.00,0.000000,,2013-05-28 03:11:00,
2013-05-27 23:33:00,54.0,32.0,-100.00,NW,326,4.0,8.0,43,0.00,,,0.00,0.000000,,2013-05-28 03:33:00,
2013-05-27 23:43:00,54.0,32.0,-100.00,NW,326,4.0,8.0,43,0.00,,,0.00,0.000000,,2013-05-28 03:43:00,
2013-05-27 23:53:00,54.0,32.0,-100.00,NW,326,4.0,8.0,43,0.00,,,0.00,0.000000,,2013-05-28 03:53:00,